GFSGBSN_925_temp_129.txt.gz
Temp
12 11 11 11 10 10 9 9 9 9 9 9 8 8 8 8 10 12 11 11 12 13 12 12 14 16 15 15 17 18 19 19 19 19 18 18 17 17 16 16 16 17 17 16 17 16 17
12 12 11 11 10 10 10 9 9 9 8 8 8 8 8 9 9 11 12 13 12 12 13 14 14 15 13 15 18 18 19 19 19 19 18 18 18 17 17 16 16 15 15 15 16 15 16
13 12 12 11 10 10 10 9 8 8 8 8 8 8 8 8 12 11 13 14 12 13 13 14 13 12 11 15 18 18 19 19 19 18 18 19 18 18 17 15 16 16 14 14 15 17 17
13 13 12 11 10 10 10 9 9 8 8 8 8 8 8 9 12 12 13 14 14 14 14 14 13 12 13 18 18 18 19 19 19 19 18 19 19 17 16 16 15 14 14 12 15 16 17
13 12 12 12 11 10 9 9 9 9 8 8 8 7 9 9 11 13 13 13 14 14 14 14 13 12 14 18 18 18 18 18 18 19 19 18 18 15 13 13 11 11 11 12 13 15 14
13 12 12 12 11 10 9 9 9 8 8 8 8 7 8 10 11 13 13 14 14 14 14 14 13 13 15 17 17 18 18 18 17 16 16 14 11 12 10 10 10 11 11 12 12 13 14
12 12 12 12 10 10 9 9 8 8 8 8 8 7 9 11 12 12 14 14 12 13 12 14 15 15 16 17 17 18 18 17 15 14 13 13 11 12 13 13 13 12 11 11 13 13 13
11 12 12 11 10 9 9 8 8 8 8 7 7 8 10 12 12 12 12 10 11 11 12 13 14 15 16 17 16 17 18 15 14 13 13 11 11 13 14 13 13 12 11 12 13 14 13
9 11 12 11 10 9 8 8 7 7 7 7 7 8 10 11 11 12 11 11 11 11 10 14 15 15 16 16 16 16 17 15 14 14 13 12 13 14 13 12 12 12 11 11 11 12 13
9 10 11 12 10 9 8 7 7 7 6 6 7 8 9 10 11 10 10 11 11 11 11 14 14 15 16 16 15 17 17 16 15 14 13 13 13 12 11 12 12 10 12 12 11 11 10
9 10 10 11 10 9 8 7 6 6 6 7 7 8 9 10 9 9 10 11 11 11 13 15 15 17 16 15 15 16 16 15 14 14 13 12 12 11 11 12 12 11 11 11 11 10 10
12 10 10 11 10 8 7 6 6 5 6 5 5 7 8 8 9 9 10 11 10 11 12 14 15 15 15 15 15 15 15 14 14 12 12 12 12 12 12 12 12 11 11 11 10 9 8
11 10 10 10 9 8 7 6 5 5 5 4 5 7 7 8 8 9 10 9 9 11 15 14 14 15 14 14 15 14 12 11 11 10 9 10 11 12 12 10 11 10 10 9 10 10 11
10 10 11 9 8 7 6 5 5 4 4 4 5 7 7 8 9 9 10 8 11 14 15 15 14 14 13 14 13 13 12 10 11 10 8 8 9 11 12 11 10 9 9 8 9 10 10
10 11 10 8 7 6 5 5 4 4 3 4 5 6 7 8 8 9 7 6 11 14 14 14 14 13 13 13 12 12 11 8 12 10 8 8 9 11 11 12 10 8 8 10 8 9 10
11 9 8 6 6 5 5 4 4 3 3 4 6 6 7 8 8 9 6 10 12 14 14 14 13 13 11 12 11 11 11 11 12 11 9 10 7 11 11 11 10 10 10 8 9 9 9
7 7 6 5 5 4 4 4 3 3 4 5 7 6 7 8 8 5 6 9 13 13 14 13 12 11 11 11 10 10 9 11 12 11 10 9 7 9 9 7 8 7 7 9 9 8 9
3 4 4 4 4 3 3 3 3 3 4 5 5 5 7 7 6 5 7 10 13 12 13 12 12 11 11 10 10 10 10 11 11 11 10 8 6 7 9 9 10 10 10 9 8 8 10
3 3 3 3 3 3 3 3 2 3 4 5 5 5 6 7 6 6 9 12 13 12 12 12 12 12 11 10 10 10 10 9 10 10 9 9 5 5 8 8 10 9 9 10 8 9 9
3 3 2 3 3 3 3 2 2 3 4 6 5 4 4 5 6 8 9 10 11 12 11 12 11 11 10 10 10 10 10 10 9 10 10 8 6 4 3 6 6 6 8 9 8 8 9
3 3 3 3 3 3 3 3 2 3 4 6 4 5 6 4 5 7 9 11 11 10 11 11 11 10 10 9 9 8 8 8 9 10 8 7 5 5 6 7 8 8 9 8 8 8 8
3 3 3 4 3 3 3 3 3 4 5 5 4 5 6 5 6 7 8 10 10 10 10 10 10 9 9 8 8 7 7 8 7 8 7 6 6 7 8 8 8 8 8 7 9 8 8
3 4 3 4 4 3 3 3 3 4 4 4 5 6 6 6 5 7 7 10 10 10 9 10 9 8 7 8 8 7 7 6 7 6 6 6 6 7 7 8 8 8 6 7 7 7 6
4 4 4 4 4 3 3 3 4 4 5 5 4 5 5 5 6 7 9 10 9 10 8 9 8 8 8 8 8 7 6 5 5 5 6 6 6 6 6 7 5 7 9 8 6 7 5
4 4 4 3 4 3 3 4 5 4 5 7 5 5 5 4 6 8 9 8 8 8 8 8 9 9 6 6 6 6 6 8 9 8 5 6 6 5 7 8 9 7 8 6 5 6 5
3 3 4 4 4 3 3 4 4 5 5 5 5 5 4 4 5 6 7 7 6 6 7 8 7 6 5 4 4 6 5 8 8 9 9 7 6 6 6 7 5 6 7 5 6 6 4
4 3 3 3 4 3 3 3 4 5 5 5 5 6 5 2 4 5 5 6 5 5 5 6 7 7 5 1 4 5 5 7 6 7 7 6 5 6 6 7 5 5 4 5 6 4 3
4 3 3 4 4 4 3 4 4 5 5 6 4 5 5 2 3 5 5 5 4 4 5 5 5 4 3 3 4 3 4 6 6 7 7 5 5 3 4 5 5 4 5 5 3 3 3
3 4 4 4 4 3 4 4 4 4 5 6 4 5 6 2 3 4 5 6 6 6 3 2 4 4 4 3 3 3 4 1 5 4 5 4 3 3 4 4 4 4 4 4 3 3 3

GFSGBSN_925_temp_132.txt.gz
Temp
14 14 13 12 12 11 11 11 11 10 10 9 9 9 9 9 10 10 12 12 13 14 14 15 15 15 14 15 17 18 19 19 19 19 18 17 17 16 16 15 15 16 16 15 16 14 14
13 14 13 13 12 11 11 11 10 10 10 9 9 9 8 8 10 11 11 13 13 12 13 14 14 14 14 17 18 18 19 19 19 18 18 18 17 17 16 15 15 15 15 14 14 15 15
13 14 14 13 13 12 11 11 10 10 10 10 9 10 9 8 10 9 12 12 13 13 13 14 13 13 14 16 18 18 18 18 18 18 17 18 18 17 16 15 15 15 14 13 13 13 14
13 13 14 13 13 13 11 11 11 10 10 9 9 9 9 9 10 10 12 13 13 14 14 14 13 13 14 18 18 18 18 18 19 18 18 18 18 15 15 15 13 13 11 11 13 13 14
11 12 13 13 13 13 12 10 11 10 10 10 9 8 9 9 11 11 13 14 14 14 14 13 13 13 15 17 18 18 18 18 18 18 17 17 16 13 12 12 10 9 10 11 12 12 12
9 10 11 13 13 13 12 10 10 10 9 9 9 8 8 9 11 13 13 13 14 14 13 12 12 14 15 16 17 18 18 17 16 16 16 14 10 11 10 10 11 11 10 11 11 11 12
8 9 10 11 12 12 12 11 10 10 9 9 9 8 8 9 11 13 13 14 13 12 12 14 14 15 16 17 17 17 17 17 15 14 13 12 11 11 12 13 13 12 11 9 11 11 11
8 8 9 10 11 12 11 11 10 10 9 9 9 8 8 10 11 12 13 11 11 11 11 13 13 14 16 16 16 17 17 15 14 12 13 11 10 13 13 13 11 11 10 9 11 12 12
7 8 8 8 9 10 12 11 10 9 9 9 9 8 8 10 10 12 12 11 11 11 11 13 13 14 15 16 15 15 16 14 13 13 12 11 12 13 12 11 10 10 9 10 10 11 11
7 7 7 7 8 9 10 11 10 9 8 8 8 7 8 9 11 11 10 11 11 11 10 13 13 14 15 15 15 16 16 15 14 13 11 11 12 11 11 11 10 9 11 10 9 9 8
7 6 7 7 7 8 9 11 9 8 7 7 7 6 8 9 10 9 11 11 11 11 12 14 14 16 14 15 14 15 15 15 13 13 12 12 12 11 11 11 11 9 10 9 10 9 8
6 6 6 7 7 8 9 10 9 8 6 6 5 5 7 8 8 10 11 11 11 10 11 13 14 14 14 15 15 14 14 13 13 11 11 11 11 11 11 12 11 11 9 9 9 8 8
6 6 5 6 7 8 9 9 9 7 6 5 4 5 5 7 8 10 11 9 10 10 14 13 13 14 13 13 14 13 12 11 11 11 10 9 11 11 12 10 10 8 7 8 9 10 10
6 4 6 8 8 8 9 9 8 6 5 4 4 3 4 8 10 10 10 8 9 12 13 14 14 13 13 13 13 12 11 10 10 9 7 9 9 11 11 11 10 8 8 5 4 9 9
5 8 9 10 9 8 9 9 8 6 5 4 3 4 5 7 9 10 7 8 12 13 13 13 13 12 12 12 12 12 11 8 10 9 8 8 9 11 11 11 9 8 8 9 4 8 8
5 12 10 10 10 9 9 8 6 5 4 2 2 3 3 6 8 8 7 11 11 14 14 14 13 12 11 11 11 11 10 10 11 10 8 9 7 10 10 10 10 9 10 6 7 7 9
5 10 11 10 10 9 7 5 5 4 3 3 3 3 5 6 8 6 7 8 12 13 13 13 12 11 11 11 10 10 9 11 11 10 10 8 7 9 9 6 8 7 5 7 7 7 9
3 8 10 9 8 6 5 5 4 2 2 3 4 5 5 7 7 5 6 9 12 12 12 12 11 11 10 10 10 10 9 10 11 10 9 7 6 6 8 8 8 8 9 8 6 6 9
6 2 5 6 6 5 5 4 2 2 3 4 4 4 4 5 6 7 8 11 12 11 12 11 11 12 11 10 10 10 9 9 10 10 9 8 5 5 7 8 9 9 9 9 8 7 8
3 4 4 2 3 3 3 2 1 2 4 6 4 5 4 4 5 8 8 10 10 11 11 11 10 11 10 10 10 9 9 9 9 10 10 8 6 3 2 5 6 6 7 7 7 7 8
3 2 2 2 2 2 1 1 2 3 4 5 4 4 5 4 3 7 9 10 10 10 11 11 10 10 9 9 9 8 8 8 8 10 7 7 4 4 6 6 6 7 6 7 4 7 7
3 3 2 2 2 2 1 2 2 3 3 5 4 5 5 7 7 7 8 9 10 9 9 9 10 9 9 9 9 8 7 8 8 7 7 5 6 6 6 7 6 7 7 7 7 7 7
3 3 3 3 2 2 2 2 2 3 4 4 4 5 6 6 6 7 7 9 10 9 9 10 9 8 8 8 8 8 8 7 7 6 6 6 5 6 7 8 7 6 6 6 4 6 5
3 3 3 3 3 3 2 3 3 4 5 5 5 5 5 5 6 7 9 9 9 9 8 9 8 8 8 7 7 6 6 6 5 5 6 5 6 6 6 7 5 6 7 7 6 5 5
3 3 3 3 3 3 3 4 4 5 5 5 4 5 5 4 6 8 8 8 8 8 7 8 8 8 6 7 6 7 6 8 7 5 4 5 5 4 5 7 8 6 7 5 5 4 4
3 3 3 3 3 3 3 4 4 5 6 7 4 7 4 6 5 6 6 8 8 6 7 7 6 6 6 5 5 6 6 8 7 7 6 5 5 6 6 7 4 6 6 5 5 5 3
3 4 4 3 4 3 4 4 5 6 6 7 5 7 5 3 4 5 6 6 6 5 5 6 7 7 5 3 5 5 5 7 6 7 7 5 6 6 6 6 5 5 4 5 6 3 4
4 3 3 4 3 3 4 4 5 5 7 9 4 6 5 3 3 4 5 5 5 5 6 5 5 5 3 4 5 3 4 6 6 7 7 6 4 2 4 4 5 3 5 6 3 4 3
3 3 3 3 4 3 4 4 5 5 6 7 5 6 7 3 3 4 5 5 6 6 3 3 5 4 4 3 3 4 4 2 5 4 4 3 3 4 4 4 4 3 3 4 3 3 3

GFSGBSN_925_temp_135.txt.gz
Temp
14 14 13 13 13 13 13 14 13 11 12 10 10 10 9 9 10 12 13 14 14 14 14 15 15 16 15 16 17 18 18 19 19 19 18 18 18 17 18 17 17 17 17 17 16 16 16
13 14 14 14 13 13 12 13 13 13 11 12 11 10 10 9 9 12 13 14 14 15 14 14 14 14 14 17 18 18 18 18 19 18 17 17 17 17 17 16 17 16 16 16 16 17 16
11 12 13 13 13 13 13 13 13 13 13 11 11 12 10 9 9 12 13 14 14 14 14 14 14 13 13 17 18 18 18 18 18 18 17 17 17 17 16 16 15 15 16 16 16 15 15
9 11 11 12 13 13 13 13 13 12 12 11 10 10 10 10 10 13 14 13 13 14 14 14 14 12 15 17 17 18 18 18 18 18 17 17 17 16 16 15 15 15 14 16 16 15 16
8 8 9 10 12 12 13 13 13 13 12 11 11 10 10 10 11 11 13 13 13 13 13 14 13 13 16 17 17 18 18 18 17 17 16 16 15 14 14 15 15 14 15 14 15 15 14
8 8 8 9 10 10 12 12 12 12 12 11 11 10 10 9 11 12 13 14 13 12 12 12 12 14 15 16 17 17 17 17 16 16 16 16 14 15 14 16 17 13 13 13 13 15 14
7 7 8 8 8 9 10 11 12 12 13 12 10 10 10 9 11 12 12 13 12 12 11 14 14 15 16 16 17 17 17 16 15 15 15 13 15 14 14 14 14 13 12 12 13 14 13
7 7 7 7 8 8 9 10 11 11 10 11 10 9 9 9 10 11 12 12 14 13 13 13 13 14 15 16 16 16 17 16 15 14 13 14 13 13 13 13 13 12 12 12 13 13 13
7 6 7 7 8 8 8 9 10 11 11 10 10 9 8 9 9 10 11 13 14 14 13 13 13 14 15 16 15 16 16 14 14 14 13 13 13 13 13 12 12 12 11 12 12 12 12
7 7 7 7 7 8 8 8 9 9 11 10 11 9 8 7 7 11 11 12 13 13 13 14 13 14 14 15 15 15 15 15 14 12 12 13 13 12 12 12 11 11 12 12 11 11 12
6 6 7 7 7 8 8 8 8 9 9 10 9 8 7 5 8 10 12 12 12 12 13 14 13 15 14 16 15 14 14 15 13 13 13 12 12 12 12 12 11 12 12 11 11 11 10
6 6 6 6 6 7 7 7 8 8 9 9 7 7 6 3 6 10 12 11 11 13 12 13 14 14 14 15 14 14 14 14 13 12 12 11 11 12 13 12 11 11 11 11 10 10 11
6 6 6 6 6 6 6 6 6 7 8 9 7 5 6 4 6 9 10 9 12 12 14 13 13 14 14 13 13 14 13 12 13 12 12 11 11 11 12 11 11 11 11 13 13 13 14
6 6 6 6 6 6 6 6 6 6 8 8 6 4 4 5 6 7 7 7 11 13 13 13 13 13 13 14 13 12 12 12 11 11 10 12 11 11 11 11 10 10 10 11 10 11 12
5 5 5 5 5 6 5 6 6 6 8 6 4 3 3 5 6 6 6 7 12 13 14 13 13 13 12 12 13 12 11 11 11 10 11 10 11 11 11 11 11 10 10 10 8 9 9
5 5 5 5 5 5 7 6 6 6 8 5 4 3 3 5 5 5 5 10 12 13 13 14 13 12 12 12 12 12 11 11 11 10 10 10 10 10 11 11 10 11 11 10 10 9 10
5 5 5 5 4 8 7 8 7 7 6 5 4 3 3 4 5 5 6 10 11 13 14 14 12 12 11 11 11 11 10 11 11 10 10 9 10 10 9 9 10 10 10 9 9 9 9
4 4 5 3 8 9 8 8 8 7 5 6 3 5 3 4 4 4 6 10 11 12 12 12 11 11 11 11 11 10 10 11 11 10 10 8 8 9 10 10 10 10 10 9 8 8 10
3 4 5 4 10 10 9 8 7 5 5 6 4 3 2 5 5 5 7 10 11 11 11 11 11 12 11 11 10 10 9 9 10 10 9 8 8 8 9 10 9 10 10 10 9 8 9
3 3 5 2 10 10 8 7 5 4 7 7 3 4 3 3 4 6 8 9 10 11 11 11 10 11 11 10 10 9 9 9 9 10 10 9 8 7 9 9 9 8 9 9 8 8 10
2 3 4 3 5 6 5 4 4 6 8 7 3 5 5 5 5 8 9 9 10 10 10 11 11 11 10 9 9 9 8 8 8 9 7 9 8 7 8 9 8 9 9 8 6 7 8
2 2 2 4 2 3 4 4 3 4 4 4 3 4 4 7 5 8 7 8 11 9 10 10 11 10 10 10 11 8 8 9 9 7 8 7 8 7 7 8 8 8 8 7 7 8 8
3 2 2 1 2 4 2 2 2 2 3 3 3 6 6 5 5 6 7 9 10 9 9 11 10 9 9 9 8 8 8 8 8 8 7 7 7 7 8 9 8 7 7 7 6 7 6
3 2 2 2 1 1 1 2 3 4 5 5 4 5 6 5 6 7 9 10 10 10 8 9 10 9 7 7 8 8 7 6 7 7 7 7 7 7 8 8 8 8 8 8 7 6 5
2 3 2 2 2 1 2 2 3 5 6 6 6 6 7 6 7 8 9 8 8 9 8 8 7 8 7 8 8 8 7 7 6 6 6 7 7 7 8 8 9 7 8 7 7 6 4
3 3 2 2 2 2 2 3 6 6 7 8 8 8 5 7 5 7 8 8 8 8 7 6 6 6 7 7 7 8 7 9 8 7 6 6 7 8 7 7 7 8 6 6 6 6 4
3 3 3 3 3 3 3 5 5 6 6 6 5 6 5 4 4 5 7 7 7 7 7 6 7 7 6 6 7 7 7 8 8 8 7 6 6 7 7 8 8 7 5 5 7 7 4
3 2 3 3 3 4 2 3 5 6 8 9 3 7 7 3 3 4 5 6 6 6 7 6 7 6 6 6 7 6 7 7 8 8 8 7 6 6 6 6 7 5 5 7 5 4 4
3 3 3 4 4 4 4 6 7 7 7 8 5 6 7 3 4 4 4 4 6 6 5 4 6 5 6 6 5 6 6 5 7 7 6 7 7 7 7 8 5 5 5 4 4 4 4

GFSGBSN_925_temp_138.txt.gz
Temp
12 13 13 14 14 14 13 14 14 12 11 11 11 10 10 10 11 13 14 14 14 15 15 15 15 16 15 21 23 19 18 19 19 19 21 22 22 22 23 23 22 23 22 22 22 21 21
12 12 12 13 13 13 13 13 13 13 13 12 11 11 11 10 11 11 14 14 14 15 15 14 15 15 17 21 19 18 18 18 20 20 21 21 22 22 22 21 22 21 21 22 22 21 21
8 9 12 12 12 12 13 13 13 13 13 13 12 11 10 10 9 11 14 14 14 14 14 15 15 14 18 21 18 18 18 19 19 19 21 20 21 22 21 20 20 20 21 22 21 21 21
8 8 9 9 10 11 12 12 13 13 12 13 13 12 11 10 10 9 14 13 13 13 14 14 14 14 20 17 18 18 19 19 18 18 19 19 20 21 20 20 20 20 20 23 21 20 21
8 8 8 8 9 10 10 11 12 12 12 12 12 12 11 11 10 10 12 13 13 13 13 13 13 16 20 17 18 19 19 20 19 18 18 18 20 20 20 21 21 21 23 21 21 21 20
7 8 8 8 8 8 9 10 11 11 12 12 12 12 12 10 11 10 12 12 12 12 12 12 13 17 18 19 19 18 18 19 20 19 20 20 20 21 21 22 23 22 21 20 20 22 19
7 7 7 7 7 8 8 8 10 11 11 11 12 12 11 11 10 9 10 11 15 15 14 19 19 19 19 18 18 19 19 19 20 20 20 19 20 21 20 18 18 18 18 19 21 19 17
7 7 7 7 7 7 7 8 8 9 10 11 11 11 11 11 8 8 7 14 18 16 18 17 17 17 18 19 19 19 18 20 19 20 18 19 20 18 17 17 17 18 18 20 19 19 17
6 7 7 7 7 7 7 8 8 9 9 10 11 10 11 8 7 6 9 13 14 15 16 18 18 18 18 18 19 19 19 19 19 18 19 20 18 16 16 16 17 18 17 17 16 17 19
6 6 6 6 6 7 7 7 8 8 9 9 10 10 9 7 6 5 6 11 13 15 15 18 16 18 17 19 18 19 19 20 18 18 18 18 16 16 16 16 16 17 15 15 16 16 19
6 6 6 6 6 7 7 7 8 8 8 9 9 9 9 10 8 5 8 8 10 12 12 19 16 17 19 18 18 17 18 19 18 17 17 17 16 16 16 15 15 16 15 15 15 16 16
6 6 6 6 6 6 7 7 7 7 7 8 8 8 7 6 7 7 8 8 8 8 13 16 16 16 17 18 18 17 18 18 18 17 17 16 15 16 16 15 14 14 15 16 15 16 17
6 6 6 6 6 6 6 7 7 7 7 7 8 8 6 7 6 6 7 6 6 8 16 15 16 17 17 17 16 17 17 17 17 16 16 15 15 15 15 15 15 15 17 19 18 18 18
5 5 6 6 6 6 6 6 6 6 6 7 7 7 6 6 7 6 5 6 8 9 15 16 17 17 17 17 17 17 17 16 16 16 17 16 14 15 14 14 14 14 15 16 14 17 17
5 5 5 5 6 6 6 6 7 6 6 6 7 7 5 4 6 5 5 7 10 12 15 16 16 16 16 17 16 16 17 17 16 16 17 16 14 14 14 14 14 13 14 14 11 14 14
4 5 5 5 5 5 5 6 5 5 5 6 6 4 4 4 5 5 6 10 10 12 15 16 14 16 16 16 15 16 15 16 14 14 15 14 13 14 13 14 13 14 14 13 14 13 14
4 4 4 5 5 5 5 5 5 5 5 6 5 5 4 4 4 4 7 9 8 13 15 14 14 15 16 15 16 16 15 14 15 14 15 14 14 13 13 12 14 12 12 12 12 13 14
3 4 4 4 4 4 5 5 5 4 4 6 5 6 4 4 4 5 7 9 11 13 15 14 14 14 15 16 15 14 13 15 15 14 14 12 13 13 13 13 13 14 13 12 12 12 14
3 4 3 4 4 4 4 5 4 4 5 6 6 3 4 5 7 6 8 9 11 11 13 14 14 15 16 15 13 14 13 13 15 14 13 12 13 12 12 12 12 13 13 13 12 11 12
3 3 3 3 3 3 4 4 4 5 6 7 4 4 2 3 7 9 9 9 10 11 11 12 12 14 14 14 14 13 11 12 13 14 11 12 11 11 14 13 14 11 12 13 11 11 13
3 3 2 3 1 5 7 7 7 8 6 8 5 5 7 5 6 9 10 11 11 10 10 10 11 13 14 12 12 12 11 11 12 10 11 12 10 10 12 13 12 12 12 12 9 10 9
3 2 2 3 2 7 9 8 8 6 7 7 5 7 9 10 9 9 8 8 10 9 9 10 12 13 14 12 13 11 12 13 12 11 11 11 11 11 11 12 12 12 12 10 10 11 12
3 2 2 3 2 2 3 6 6 6 7 4 6 11 11 9 8 9 9 9 10 10 9 12 12 11 12 12 15 15 14 14 13 11 11 10 11 11 12 12 11 10 10 10 8 10 9
3 2 2 2 2 2 2 3 3 2 5 6 9 12 11 7 9 10 10 9 10 10 8 11 12 11 9 11 12 12 12 12 12 11 12 10 11 11 11 11 9 11 12 13 11 9 9
3 2 2 1 2 1 2 3 3 4 5 5 6 8 8 7 9 8 9 10 10 10 9 9 9 11 11 13 12 11 10 10 10 10 10 11 11 10 10 12 12 9 10 11 11 10 8
3 2 2 1 2 3 3 3 3 3 4 5 4 6 8 7 6 8 7 7 7 8 7 7 10 11 12 12 12 11 10 12 9 8 9 9 10 10 10 10 10 11 10 9 10 10 8
3 2 2 1 1 3 4 4 4 4 4 4 3 6 6 5 4 8 8 8 11 11 10 9 9 10 12 11 11 11 10 12 10 9 7 8 9 10 10 10 11 11 9 9 10 9 8
3 3 2 1 2 3 4 4 5 6 7 7 4 6 6 5 4 7 9 9 12 12 11 10 10 10 11 10 11 10 10 11 11 11 9 9 9 9 10 10 10 10 8 9 9 8 7
3 3 2 2 2 3 4 6 6 6 7 6 5 6 7 6 5 5 5 6 11 13 11 8 12 11 11 11 10 10 9 9 10 9 9 9 11 11 11 11 10 10 9 8 8 8 7

GFSGBSN_925_temp_144.txt.gz
Temp
11 12 12 12 13 13 13 13 13 13 13 13 13 12 12 11 13 12 13 14 14 14 15 15 15 15 17 22 24 21 22 22 21 23 24 26 25 26 26 27 28 27 27 28 27 26 26
9 9 10 11 12 12 13 12 13 13 13 12 13 12 12 11 11 12 12 13 14 14 15 15 15 15 16 20 24 22 22 22 23 24 25 25 26 26 25 26 26 27 26 27 27 27 26
9 9 9 9 10 11 12 12 12 12 12 12 12 12 12 12 12 11 11 12 14 14 14 15 15 13 18 21 24 24 22 23 23 24 24 25 25 25 26 25 27 25 24 26 27 27 26
9 9 9 9 9 9 9 10 11 11 12 12 12 12 12 12 12 11 11 11 13 14 14 15 15 13 18 22 23 23 23 23 23 23 23 24 23 24 25 26 25 24 25 24 27 26 25
8 8 8 8 9 8 8 8 9 9 10 11 11 12 12 12 12 11 10 12 13 13 13 14 14 16 19 21 22 23 23 24 23 23 22 23 23 23 24 22 23 25 23 25 26 26 25
8 7 7 8 8 8 8 8 8 8 9 10 10 11 11 11 11 10 10 10 12 12 14 14 16 18 21 22 23 23 23 23 23 23 22 22 22 22 23 23 22 25 25 26 25 26 25
7 7 7 7 7 7 7 7 8 8 8 9 10 11 11 11 11 10 9 10 12 14 15 19 21 20 24 23 23 23 23 22 23 22 21 22 21 21 24 25 25 24 24 24 26 26 24
7 7 7 7 7 7 7 7 7 8 8 8 8 9 11 11 11 10 9 10 11 11 14 19 20 21 23 24 22 23 23 22 21 21 22 22 21 23 25 23 23 23 23 24 25 26 23
7 7 7 7 7 7 7 7 7 8 8 8 8 9 9 10 9 8 9 9 10 11 12 15 20 21 22 23 22 23 23 22 22 21 22 22 24 24 23 22 22 23 22 23 23 23 23
7 7 7 7 7 7 7 7 7 7 8 8 8 8 9 9 8 7 7 8 9 10 11 15 18 20 22 23 21 23 23 23 22 22 23 23 24 22 22 22 22 21 23 21 21 21 21
6 6 6 6 7 7 7 7 7 7 7 8 8 8 7 9 8 8 9 9 10 10 13 20 21 23 24 22 22 22 24 22 21 22 22 22 23 21 21 22 23 21 20 20 21 20 21
6 6 6 6 6 6 6 6 7 7 7 8 8 8 7 7 7 7 9 9 10 10 12 17 21 20 20 22 21 23 23 23 23 22 23 22 23 22 21 22 21 21 19 20 21 21 19
5 5 5 5 6 6 6 6 6 7 7 7 7 8 7 7 7 7 7 8 9 12 15 17 19 20 20 20 20 21 21 20 20 18 20 21 21 21 21 20 19 19 18 18 19 19 19
5 5 5 5 5 5 6 6 6 6 7 7 7 7 7 7 7 7 7 8 11 15 15 20 19 20 19 20 19 20 20 20 20 21 21 19 19 20 20 19 20 19 19 19 18 20 22
4 4 4 5 5 5 5 6 6 6 6 7 7 7 7 7 6 6 7 9 11 15 18 17 19 18 19 20 20 20 19 19 21 21 19 20 20 22 20 20 20 20 18 20 17 19 18
4 4 4 4 4 5 5 5 6 6 6 7 6 7 8 6 6 6 7 9 10 15 18 17 15 18 18 19 19 20 19 20 20 21 21 20 19 19 19 19 19 19 20 17 18 16 18
4 4 4 4 4 4 5 5 5 6 6 7 6 6 8 7 5 6 8 9 11 14 17 16 16 17 18 20 20 19 19 20 21 21 21 20 18 18 18 16 17 16 16 17 18 19 17
3 3 3 3 4 4 4 4 4 5 6 6 7 6 6 5 6 5 7 10 13 15 16 16 17 17 16 18 19 19 18 19 20 21 19 18 17 17 17 18 19 19 17 17 15 17 17
3 3 3 3 3 4 4 4 4 4 5 5 6 6 5 6 6 7 10 11 13 14 15 14 14 16 17 17 16 16 19 20 19 19 17 17 15 14 16 16 16 16 18 18 18 16 15
3 3 3 3 3 3 4 4 4 4 5 5 5 5 4 5 10 10 10 11 12 14 14 15 15 17 16 16 16 14 16 18 18 18 14 16 15 14 16 16 16 14 16 18 16 14 15
3 3 3 2 3 3 3 4 4 4 4 5 5 5 7 5 6 10 12 12 12 12 14 15 14 15 15 14 15 14 16 15 15 13 13 14 12 13 16 18 17 16 16 17 14 15 13
3 3 3 2 3 3 3 3 4 4 5 5 5 6 9 10 10 8 11 12 13 13 14 13 14 15 16 15 15 14 15 13 13 13 14 14 13 15 14 16 17 16 17 16 16 16 15
3 2 2 2 3 3 3 4 4 4 4 5 6 7 10 11 11 8 9 12 13 15 15 15 15 15 16 17 17 17 15 15 14 12 10 11 12 13 13 15 16 14 15 14 10 15 15
2 2 2 2 2 3 3 3 3 3 4 4 5 7 8 8 11 10 11 12 14 14 14 15 16 15 17 18 16 15 15 13 13 13 13 12 13 13 13 14 12 15 17 17 16 14 14
1 2 3 3 3 2 2 2 2 2 3 3 4 6 9 9 11 12 12 12 12 14 14 14 16 17 16 13 12 11 11 11 11 13 13 14 13 13 12 13 14 14 15 15 15 14 14
3 3 3 3 2 1 1 1 2 2 2 3 3 5 8 9 11 13 13 12 12 13 13 13 11 16 15 14 11 10 9 11 11 12 14 14 13 12 12 11 10 15 16 15 15 12 14
3 3 2 2 1 2 2 2 2 3 3 3 3 5 8 9 12 13 12 12 14 13 11 10 10 12 14 12 11 9 9 12 11 11 11 11 11 11 11 12 14 14 14 14 11 11 11
3 2 2 2 2 2 2 2 5 7 7 4 4 5 8 9 12 13 15 13 13 13 9 8 11 9 9 8 9 10 11 12 11 12 11 10 10 10 11 11 12 14 13 12 11 11 9
2 2 2 2 3 3 2 3 5 6 6 7 6 7 9 8 5 7 9 12 15 14 13 11 11 9 9 10 11 12 12 11 11 10 12 10 11 11 13 13 13 13 13 12 13 11 10

GFSGBSN_925_temp_147.txt.gz
Temp
10 11 12 12 12 13 13 13 13 13 13 13 13 13 13 13 13 13 14 13 14 15 15 15 15 15 17 17 19 22 22 22 22 22 22 23 22 22 21 22 22 25 25 25 26 24 24
8 9 9 10 11 11 12 12 13 12 13 13 13 13 12 12 12 13 13 13 13 14 14 15 15 15 14 17 22 23 22 22 22 23 24 23 23 23 23 23 22 23 22 23 24 24 24
8 8 9 9 9 9 10 10 11 12 12 12 12 12 12 12 12 12 13 13 13 14 14 15 15 14 14 17 23 22 23 22 23 23 23 24 24 22 21 21 23 23 22 21 22 23 24
8 8 8 8 9 9 9 9 9 10 10 11 11 12 12 12 12 12 12 12 12 13 14 15 14 13 13 21 21 22 22 23 23 23 23 23 23 22 21 21 22 22 21 19 22 22 22
8 8 8 8 8 8 8 8 8 8 9 9 11 11 11 11 12 12 11 11 12 12 13 14 14 13 15 21 21 22 23 23 23 23 23 23 22 20 20 20 18 19 18 20 22 21 21
7 7 7 7 7 8 8 8 7 8 8 8 9 10 11 12 11 11 11 11 11 11 13 13 14 14 17 20 22 22 22 23 22 22 21 21 19 18 18 17 17 19 19 21 20 21 21
8 8 7 7 7 7 7 7 7 8 8 8 8 9 10 11 11 11 10 11 11 11 12 15 16 17 21 22 22 22 23 22 22 21 18 19 17 16 17 18 21 21 22 21 22 22 22
8 8 7 7 7 7 7 7 7 8 8 8 8 8 9 9 10 10 9 10 10 10 12 16 16 18 19 20 20 21 23 20 19 17 19 18 16 19 21 22 22 22 21 20 21 22 21
7 7 7 7 7 7 7 7 7 7 7 8 8 8 8 9 9 9 9 10 10 10 10 14 17 18 19 20 19 20 21 19 19 18 18 17 19 21 22 21 21 21 20 20 20 20 21
7 7 7 7 7 7 7 7 7 7 7 8 8 8 8 9 8 8 7 10 10 10 11 14 14 17 19 21 19 22 22 20 19 18 19 19 21 21 21 21 21 19 20 20 20 18 17
6 6 6 6 7 7 7 7 7 7 7 7 8 7 8 8 8 7 10 10 10 11 12 18 19 21 20 20 20 21 22 20 19 19 20 19 21 20 20 20 21 19 19 18 18 17 16
6 6 6 6 6 6 6 6 6 7 7 7 8 7 8 7 7 8 9 9 9 10 12 16 19 19 19 19 20 21 20 20 20 19 19 19 21 19 19 21 21 18 18 18 17 16 13
5 5 5 5 5 6 6 6 6 6 7 7 7 7 7 7 7 8 8 8 9 11 15 17 18 19 19 19 19 19 19 18 18 16 17 19 20 21 21 18 18 17 15 13 14 14 14
5 5 5 5 5 5 5 6 6 6 6 7 7 7 7 7 7 8 7 8 10 13 15 19 19 19 18 19 19 19 18 17 19 18 17 17 16 18 19 18 16 15 15 11 15 14 16
5 4 4 4 4 4 5 5 6 6 6 6 7 6 6 6 7 7 7 8 10 12 16 16 17 17 16 18 19 18 17 16 18 18 15 16 18 19 19 19 18 16 14 17 15 16 14
5 4 4 4 4 4 5 5 5 5 6 6 6 6 7 7 6 6 7 8 10 12 14 16 15 16 16 17 18 16 16 18 18 18 19 18 17 19 18 18 18 17 17 13 13 14 14
4 4 4 4 4 4 4 4 5 5 5 6 6 5 8 7 6 6 7 7 10 13 14 14 14 14 16 17 18 17 16 18 18 19 19 18 14 16 16 14 15 15 13 15 14 13 13
3 3 3 4 4 4 4 4 4 5 5 5 5 5 6 6 6 5 6 9 11 12 13 13 14 13 14 15 16 17 17 17 18 18 18 16 13 13 15 16 17 16 15 15 10 14 13
3 3 3 3 3 3 3 4 4 4 5 5 3 5 6 6 6 6 7 9 10 12 12 13 13 13 13 14 13 16 16 18 17 16 16 15 11 12 15 14 16 14 16 16 15 13 12
3 3 3 3 3 3 3 3 3 4 4 4 4 4 4 6 5 7 7 7 9 11 12 13 13 13 12 12 13 13 15 16 15 15 13 14 13 12 14 14 13 13 15 16 15 11 12
3 3 2 2 3 3 3 3 3 3 4 4 3 4 5 5 5 5 8 9 9 9 12 12 12 12 12 11 12 12 13 14 14 13 12 11 10 13 14 13 15 15 15 15 12 13 12
2 2 2 2 2 3 3 3 3 3 4 3 3 4 5 5 7 6 7 8 10 10 11 11 11 12 12 12 12 13 13 12 12 12 10 11 10 12 12 13 13 15 14 14 14 14 15
3 3 2 2 2 3 3 3 3 3 3 4 3 5 5 6 6 7 7 8 9 11 12 13 12 12 12 12 13 13 12 12 12 10 9 9 10 10 9 11 12 12 12 13 10 13 14
2 2 2 3 2 2 2 2 3 3 3 3 4 5 4 5 6 6 8 9 10 10 10 12 12 12 13 12 10 9 11 12 12 11 10 9 10 9 11 12 10 13 16 16 14 13 13
1 2 2 2 2 1 2 3 3 3 3 3 4 5 5 5 7 8 5 8 9 10 11 12 13 14 11 9 7 8 8 7 10 12 11 11 10 8 9 11 13 14 15 14 14 12 13
0 1 1 1 3 3 3 4 3 4 4 3 4 5 6 5 6 9 9 9 8 8 9 10 12 10 10 8 7 8 8 8 8 10 12 11 10 9 10 11 10 11 14 15 15 8 10
0 1 3 3 3 3 2 2 3 3 3 4 4 5 6 5 7 8 8 9 10 9 8 9 10 9 10 7 8 9 9 10 9 9 9 9 9 10 10 9 9 12 13 14 11 7 8
3 3 3 2 2 2 2 2 3 3 2 3 2 3 6 6 6 8 10 10 9 9 8 8 8 7 7 8 10 7 7 8 9 10 10 10 9 8 9 8 8 12 13 11 8 8 8
2 2 2 2 2 2 3 3 3 3 2 2 3 3 4 5 5 7 10 10 9 11 10 9 9 6 6 7 7 8 7 6 8 8 10 8 7 8 9 8 10 11 10 10 9 8 7

GFSGBSN_925_temp_153.txt.gz
Temp
11 11 12 12 12 12 12 13 13 13 13 13 13 13 13 13 13 13 13 13 13 13 14 14 15 16 18 16 18 22 22 22 22 22 21 21 20 20 20 20 20 20 22 22 21 20 21
8 9 9 10 10 11 11 12 12 12 13 13 13 13 13 12 12 13 13 13 13 13 13 14 14 15 16 16 21 21 21 21 21 21 21 21 21 20 20 20 20 21 21 21 21 21 21
8 8 8 8 9 9 10 10 11 12 12 12 12 12 12 12 12 12 12 12 12 12 13 13 13 13 13 16 21 21 20 21 21 21 21 22 21 20 20 19 20 21 20 19 19 21 21
8 8 8 8 8 8 8 8 9 10 10 11 12 12 12 12 12 12 12 12 12 12 12 13 13 13 13 19 19 19 20 20 21 21 21 22 22 21 20 19 18 20 19 18 20 20 21
8 8 8 8 8 8 8 8 8 8 8 8 9 11 11 12 12 12 12 11 12 12 12 13 13 13 14 18 18 21 21 20 21 22 22 22 21 19 18 16 16 16 17 18 19 19 20
7 7 7 7 7 7 7 7 7 8 8 8 8 9 9 10 11 11 12 11 12 12 12 12 12 13 15 18 20 21 21 20 20 20 20 20 14 15 14 14 15 17 17 18 18 20 18
8 7 7 8 7 7 7 7 7 7 7 7 8 8 8 9 10 11 11 12 11 11 11 13 14 15 17 18 20 20 21 21 20 18 17 17 16 14 15 15 17 18 17 17 17 19 19
7 8 8 8 8 7 7 7 7 7 7 7 7 7 8 8 9 10 10 10 11 11 11 13 13 14 15 16 16 17 20 19 18 16 16 16 14 17 16 16 16 16 16 16 16 19 19
8 8 8 8 8 8 7 7 7 7 7 7 7 8 8 8 9 8 9 11 12 11 12 12 13 15 15 16 15 16 18 18 17 16 15 15 17 17 17 16 16 16 16 17 18 18 18
7 7 7 8 8 8 7 7 7 7 7 7 7 8 8 8 8 8 9 12 11 10 10 12 13 13 15 16 15 18 18 18 16 16 16 15 17 17 17 16 16 15 17 18 18 16 16
7 7 7 7 7 7 7 7 7 7 7 7 7 7 7 7 8 8 9 10 10 10 8 15 15 16 16 16 17 17 19 17 17 16 16 16 17 15 16 17 17 16 17 17 17 14 15
7 7 7 7 7 7 7 7 7 7 7 7 7 7 7 7 8 8 9 10 10 9 7 13 16 15 15 16 17 18 17 18 18 17 16 17 18 17 17 17 17 16 16 15 13 13 14
6 6 7 6 6 6 7 7 7 7 7 7 7 7 7 7 7 8 8 9 9 8 13 14 15 16 16 15 16 17 16 16 16 15 15 17 17 17 19 18 17 16 16 14 14 13 14
6 6 6 6 6 6 6 6 6 6 6 7 7 6 6 7 8 8 8 8 7 10 12 15 15 14 15 16 16 16 16 15 17 16 14 15 14 16 17 18 15 14 15 13 14 13 14
5 5 5 6 6 6 6 6 6 6 6 6 6 6 5 6 7 7 7 8 8 9 13 13 14 13 14 15 15 16 15 14 15 16 14 14 15 18 18 17 18 15 14 16 13 13 12
5 5 5 5 5 5 5 6 6 6 6 6 5 5 4 7 7 6 6 8 8 10 12 12 12 13 12 14 15 14 15 16 16 16 15 15 14 17 17 17 16 16 15 14 12 14 14
4 4 4 4 5 5 5 5 5 5 6 5 5 4 6 7 6 5 6 6 8 10 11 11 11 12 12 13 14 14 14 15 17 16 16 17 14 15 16 15 14 14 13 14 14 13 13
3 4 4 4 4 4 5 5 5 5 5 4 3 4 5 6 5 5 6 6 9 9 10 9 10 10 11 12 12 14 14 14 13 16 15 15 12 14 15 15 16 16 14 13 10 13 13
3 3 4 4 3 3 4 4 4 5 5 4 3 2 4 6 5 5 6 7 8 9 9 9 9 10 11 11 10 11 13 14 12 12 13 14 12 11 13 14 14 15 14 15 13 12 13
3 3 3 3 3 3 3 4 4 4 4 4 2 3 1 4 5 6 6 6 6 8 8 10 10 10 10 10 10 10 12 13 12 13 12 12 11 12 13 13 12 13 14 15 11 10 13
2 3 3 3 3 3 3 3 3 3 4 3 2 3 2 3 3 5 6 7 7 7 8 9 8 9 9 8 9 9 10 11 12 12 12 10 9 10 13 15 14 13 14 13 10 13 11
2 2 2 2 2 2 3 3 3 3 3 2 2 2 1 3 5 5 4 6 7 7 8 8 8 9 9 9 9 10 10 10 10 9 10 10 9 9 11 13 13 13 12 11 11 13 13
3 3 2 2 2 2 2 2 3 3 3 2 2 1 3 4 4 2 5 6 7 8 8 9 8 8 8 9 10 9 8 8 9 9 8 8 8 9 10 12 10 9 10 11 11 12 12
2 3 3 3 3 2 2 2 2 2 3 2 1 2 2 2 3 4 5 6 6 6 7 8 8 7 10 9 8 8 7 8 8 8 9 8 8 8 10 9 10 12 12 12 12 12 12
2 2 2 2 2 2 2 2 2 2 2 2 2 2 2 2 4 4 4 4 5 6 4 6 8 9 8 8 6 4 5 7 9 8 7 9 8 8 9 10 10 11 13 12 11 11 12
2 2 2 2 2 2 2 2 2 2 2 2 2 2 2 2 3 5 4 4 4 5 5 4 7 7 7 6 4 6 7 8 8 8 9 10 9 10 8 8 7 9 11 13 13 11 9
2 2 2 2 2 2 1 1 2 2 2 2 2 2 2 2 2 4 3 4 5 5 5 5 6 6 6 4 7 7 7 8 7 8 7 8 7 8 8 8 8 9 11 13 11 9 8
1 1 2 2 1 1 1 1 1 1 2 2 2 2 2 2 2 4 5 4 4 5 5 5 6 5 4 5 5 7 6 7 7 8 7 8 7 8 8 8 8 10 11 11 8 6 6
1 1 1 0 1 1 2 3 2 1 2 2 2 2 2 2 2 5 5 6 6 6 5 5 6 5 6 4 5 5 7 5 7 6 7 7 7 7 8 7 8 8 9 7 7 6 5

GFSGBSN_925_temp_156.txt.gz
Temp
11 12 12 12 12 12 12 13 13 13 13 13 13 13 13 13 13 14 13 13 13 13 13 14 14 15 17 16 18 22 22 22 22 22 21 20 19 19 20 19 19 20 21 20 20 20 21
9 10 10 10 11 11 11 11 11 12 12 12 12 12 13 12 13 13 13 13 13 13 13 13 13 14 15 15 20 21 21 21 21 21 21 21 20 20 19 19 19 19 19 19 20 21 20
9 8 8 8 8 9 9 10 10 10 11 12 12 12 12 12 12 12 12 12 12 12 13 13 13 12 12 15 19 20 20 20 21 21 20 21 21 20 19 19 19 19 19 18 20 20 20
8 8 8 8 8 8 8 8 9 9 9 10 11 11 12 12 12 12 12 12 12 12 13 12 12 12 12 18 18 19 20 20 20 20 20 21 21 20 20 19 17 19 17 18 19 20 20
8 8 8 8 8 8 8 8 8 8 8 9 9 10 11 11 11 11 12 12 12 12 13 12 12 12 13 17 18 20 20 18 20 20 21 21 20 17 17 16 15 15 16 17 19 18 19
8 8 8 8 8 8 7 7 7 7 8 8 8 8 9 10 10 11 11 11 12 12 12 12 11 13 14 18 19 19 19 18 20 19 19 18 14 15 13 15 15 16 16 17 17 19 18
8 8 8 8 8 7 7 7 7 7 7 7 7 8 8 8 9 10 11 11 10 10 10 12 13 14 16 17 18 19 19 19 19 18 17 16 15 14 15 15 17 17 17 16 16 17 18
8 8 7 8 8 8 7 7 7 7 7 7 7 7 8 8 8 10 10 10 11 11 10 12 12 12 14 15 15 17 20 18 18 17 16 15 14 15 15 15 15 16 16 15 16 16 17
8 8 8 8 8 7 8 8 8 7 7 7 7 8 8 7 8 8 9 10 11 11 10 11 12 13 14 15 14 16 18 18 17 15 15 14 16 16 15 16 16 14 15 15 16 17 17
8 8 8 8 8 8 8 7 8 7 7 7 7 7 7 8 8 8 9 10 10 11 9 11 12 13 14 15 14 17 18 17 16 16 15 14 16 16 16 16 15 15 15 16 17 17 15
8 7 7 7 7 7 8 8 7 7 7 7 7 7 7 7 7 8 9 10 10 11 7 14 14 15 15 15 17 16 17 16 17 16 17 16 16 15 15 16 15 15 16 16 16 14 15
7 7 7 7 7 7 7 7 7 7 7 7 7 7 7 7 7 8 9 9 10 9 7 13 15 14 14 15 16 17 16 17 17 16 16 16 16 15 16 16 15 15 15 14 12 13 13
7 7 7 7 7 7 7 7 7 7 7 7 7 7 7 7 7 8 8 9 9 7 12 14 15 14 14 14 15 16 16 15 15 14 14 16 16 17 18 17 15 17 15 14 14 13 14
6 6 6 6 6 6 6 6 6 6 6 7 6 6 6 7 7 8 8 8 8 9 10 13 14 14 14 15 15 15 15 14 15 15 14 14 14 15 16 18 16 15 15 12 14 13 14
6 6 6 6 6 6 6 6 6 6 6 6 6 5 5 7 7 7 7 8 7 8 12 12 14 13 13 14 15 16 14 13 15 15 14 14 14 16 16 17 17 14 14 16 14 13 12
5 6 5 5 6 6 6 6 6 6 6 6 5 5 4 7 6 7 6 8 8 9 11 11 11 12 12 13 14 15 14 15 15 15 15 15 14 16 17 17 16 15 15 14 12 15 15
4 4 4 5 5 6 5 5 6 6 6 5 5 4 6 6 6 5 6 6 8 10 10 10 10 11 12 12 13 13 13 15 14 16 14 15 13 15 16 15 14 13 13 14 15 13 15
3 4 4 4 4 5 5 5 5 5 5 5 3 4 5 6 5 4 6 6 9 8 9 9 9 10 10 11 11 12 13 13 12 13 14 13 11 11 14 15 15 15 14 14 14 14 12
3 2 3 3 4 4 4 5 5 5 4 3 3 2 4 4 5 5 6 6 7 7 8 8 8 9 10 10 9 10 11 13 13 13 11 11 9 11 12 13 14 14 14 14 13 12 13
3 3 3 3 4 4 4 4 4 5 4 3 2 3 1 4 4 5 6 6 6 7 7 8 8 9 8 8 9 9 10 13 11 12 12 11 10 9 11 12 12 13 14 13 12 11 14
3 2 2 3 3 3 4 2 3 4 4 3 2 2 2 3 4 4 5 6 6 6 7 7 7 7 8 7 8 8 9 10 11 12 11 10 10 9 10 10 12 13 13 14 11 13 12
2 2 2 3 3 3 3 2 2 2 3 3 2 2 1 3 4 4 4 5 6 7 7 7 7 8 8 7 8 8 9 9 9 9 9 8 7 8 9 11 13 12 10 11 12 13 14
2 3 3 3 3 3 3 3 2 2 3 1 2 1 2 3 2 2 4 5 5 6 7 7 7 7 7 8 9 8 8 9 9 9 7 8 8 8 10 11 10 9 10 10 9 11 12
2 2 2 2 2 2 2 2 3 3 3 2 1 2 2 2 3 3 3 4 5 5 5 7 8 6 8 8 7 7 7 7 6 7 7 6 7 8 10 9 10 11 12 12 12 12 12
2 2 2 2 2 2 2 2 2 2 2 2 1 2 2 2 3 4 4 4 4 4 5 5 4 5 6 7 7 5 3 5 8 7 6 8 7 6 9 10 9 10 11 10 10 11 11
2 3 3 2 2 2 2 2 2 2 2 2 2 1 1 2 2 4 4 4 2 0 2 3 5 5 5 5 4 6 6 7 8 8 7 7 8 8 7 9 9 10 11 12 11 8 9
2 2 2 2 2 2 2 2 2 2 2 2 2 1 2 1 2 3 3 3 3 3 1 4 5 4 4 5 6 7 6 8 7 8 7 7 7 8 9 8 9 9 10 11 11 9 8
2 2 2 2 2 2 2 2 2 2 2 2 2 1 1 1 1 2 4 3 3 3 3 3 4 3 3 4 5 5 5 6 7 7 7 7 7 7 8 8 8 9 11 11 9 5 5
2 1 1 1 1 2 1 1 1 1 1 1 2 1 1 1 1 3 4 5 5 5 4 4 5 5 4 4 3 4 5 4 6 6 7 7 7 7 7 8 8 7 8 6 6 4 4

GFSGBSN_925_temp_159.txt.gz
Temp
11 12 12 12 12 12 12 13 13 13 13 13 13 13 13 13 13 13 13 14 14 13 13 13 14 15 16 16 18 20 21 21 21 22 21 20 20 20 21 20 20 21 21 21 21 21 22
9 9 10 10 11 11 11 11 11 12 12 12 12 12 12 12 12 13 13 13 13 13 13 13 13 13 15 16 19 20 21 21 21 21 21 20 21 20 20 20 20 20 20 20 20 21 21
8 9 8 9 9 9 9 9 10 10 11 11 11 12 12 12 12 12 12 12 12 12 13 13 13 12 12 16 19 19 20 20 20 20 20 20 20 21 19 20 19 19 20 20 21 22 22
8 8 8 8 8 8 8 8 8 9 9 9 10 10 11 11 11 12 12 12 12 12 12 12 12 12 13 18 18 18 19 19 20 20 19 20 20 19 20 19 19 20 19 20 21 20 20
8 8 8 8 8 8 8 8 8 8 8 8 9 9 10 10 10 11 11 11 12 11 12 12 12 12 15 17 17 19 19 18 19 19 20 20 19 17 18 18 19 18 20 19 20 19 20
8 8 8 8 8 8 8 7 7 7 7 8 8 8 8 9 10 10 11 11 11 11 11 11 11 13 15 18 18 18 19 18 19 19 19 19 16 17 16 18 19 19 19 18 19 20 19
8 8 8 8 8 8 7 7 7 7 7 7 7 8 8 8 8 9 11 11 11 11 10 13 13 14 16 16 17 18 19 18 19 18 18 17 18 17 19 18 18 18 18 18 18 19 19
9 8 8 8 8 8 8 8 7 7 7 7 7 8 8 8 9 9 9 9 10 10 10 11 12 12 13 14 15 17 18 19 18 18 16 17 17 18 17 16 17 17 17 18 18 18 18
8 8 8 8 8 8 8 8 8 7 7 7 7 7 8 8 8 8 9 9 10 10 10 11 12 13 14 14 15 16 18 17 18 16 17 17 18 16 17 16 16 16 17 16 18 17 17
8 8 8 8 8 8 8 8 8 7 7 7 7 7 7 7 8 8 8 9 10 10 10 11 12 13 14 15 15 16 17 18 17 17 16 17 18 17 16 16 17 16 17 18 17 18 18
8 8 8 8 8 8 8 7 8 7 7 7 7 7 7 7 7 7 8 9 10 10 10 14 14 15 14 15 16 16 16 17 17 16 17 17 16 16 17 17 17 17 16 17 17 17 16
7 7 8 8 7 7 8 8 8 8 7 7 7 7 7 7 7 8 8 9 10 9 10 14 14 14 14 14 15 16 16 17 17 17 16 17 17 17 18 16 17 16 16 15 14 16 16
7 7 7 7 7 7 7 7 7 7 7 7 7 7 7 7 7 8 8 9 10 9 13 14 14 14 14 14 14 15 15 15 16 15 15 16 17 17 17 17 16 17 17 16 16 16 17
6 6 6 7 7 7 7 7 7 7 7 7 7 6 6 7 7 7 7 8 8 11 13 13 13 14 14 15 15 15 15 15 15 15 15 15 16 17 18 18 18 16 18 17 16 16 18
6 6 6 6 6 6 7 7 6 6 6 6 6 6 5 6 7 7 7 8 9 9 11 12 13 14 13 14 15 15 14 14 15 16 15 15 15 16 16 18 18 16 16 18 16 14 15
5 5 5 5 6 6 6 6 6 6 6 6 5 4 4 7 6 7 6 9 9 9 11 11 12 13 12 13 14 15 14 15 15 15 14 16 15 17 17 17 16 17 17 15 13 12 13
4 5 5 5 5 6 6 6 6 6 5 5 5 4 6 6 6 5 7 8 9 9 10 11 11 11 12 12 12 13 13 14 14 14 14 14 13 15 16 15 16 15 15 16 16 16 16
3 3 4 5 4 4 6 5 6 5 5 4 3 5 5 5 5 5 6 8 8 8 9 9 9 10 10 11 11 12 12 13 12 14 14 12 11 12 14 15 16 16 15 16 14 16 15
3 3 3 3 4 4 4 5 6 4 4 3 3 3 3 4 5 5 6 7 7 7 8 8 8 10 10 10 10 11 11 13 12 13 12 12 11 12 14 14 14 15 16 15 12 11 14
3 3 3 3 3 2 3 4 4 5 4 3 2 3 3 4 4 6 6 7 6 7 7 8 8 9 9 9 10 9 10 12 11 11 12 11 10 11 12 12 12 12 13 15 14 13 14
3 2 3 3 3 3 3 4 4 4 3 2 2 3 3 4 4 5 6 7 7 6 7 7 7 8 8 8 9 9 9 10 10 11 11 12 10 11 11 12 12 12 13 13 12 14 13
2 2 2 3 2 3 3 4 4 3 3 2 2 3 2 3 5 4 5 6 6 7 7 7 7 8 8 8 9 9 9 9 10 9 9 8 10 9 10 11 11 12 13 13 13 13 14
2 3 3 2 2 3 3 3 4 3 2 -0 0 1 3 4 3 3 4 5 5 6 7 7 7 7 7 8 8 9 9 9 9 9 9 9 9 9 10 11 11 10 11 12 12 13 14
2 2 2 3 3 3 3 3 2 2 2 -0 2 2 2 2 4 4 5 5 5 5 5 6 6 5 6 6 7 8 7 8 8 9 9 9 8 9 9 10 9 13 12 13 12 13 13
2 2 2 2 2 2 2 3 2 2 2 1 0 1 2 2 4 4 4 4 5 5 4 5 6 6 5 3 5 6 6 6 8 9 9 9 9 9 9 10 12 12 14 12 12 13 14
2 2 3 3 2 2 2 2 2 2 2 1 1 1 1 2 3 5 4 4 4 3 4 4 5 5 5 5 5 6 7 8 9 9 8 8 9 9 8 8 9 13 12 12 13 12 12
2 2 2 2 2 2 2 2 2 2 2 2 1 2 2 2 2 4 4 4 4 4 4 4 4 4 5 4 4 4 6 9 8 9 8 7 7 8 9 8 11 12 12 12 12 13 9
2 2 2 2 2 2 2 2 2 2 2 2 1 1 2 2 2 3 4 4 3 4 4 4 5 4 5 4 5 6 6 8 9 9 9 9 8 8 9 9 9 11 11 12 10 6 7
2 2 2 2 2 2 2 2 2 2 2 2 1 1 1 1 1 2 4 5 5 5 4 3 5 4 6 4 5 7 7 6 7 8 7 8 10 10 10 11 8 8 8 7 7 6 5

GFSGBSN_925_temp_162.txt.gz
Temp
11 11 11 11 12 12 12 12 12 13 13 13 13 13 13 13 13 13 12 13 13 14 14 13 14 14 16 21 23 21 21 21 21 22 24 25 25 25 26 26 25 25 26 26 26 26 26
10 10 9 10 10 10 10 11 11 11 12 12 12 12 12 12 13 13 13 13 13 14 14 14 13 14 16 19 20 20 20 20 22 23 24 24 25 25 25 25 25 24 25 26 26 27 26
9 9 9 9 9 9 9 10 10 10 10 11 11 11 11 12 12 12 12 12 13 13 13 13 13 12 16 19 20 19 19 20 21 22 24 23 23 24 24 24 23 24 23 26 26 26 26
8 9 9 8 8 8 8 8 8 8 9 9 10 10 11 11 11 11 12 12 12 12 13 13 12 13 17 19 18 18 20 20 20 21 21 22 22 23 23 23 23 23 24 25 26 25 25
9 8 8 8 8 8 8 8 8 8 8 8 8 9 10 11 11 11 11 11 12 12 12 12 12 15 19 19 19 20 19 21 21 21 21 21 22 22 22 22 23 24 24 25 25 25 25
9 9 8 8 8 8 8 8 8 8 8 8 8 8 8 9 9 10 11 11 11 11 12 11 13 15 19 21 20 19 19 20 22 22 21 22 22 22 22 23 22 24 23 24 24 25 24
9 9 9 8 8 8 8 8 8 7 7 7 7 8 8 8 9 10 10 12 15 15 13 18 19 19 20 19 18 21 20 21 22 22 21 22 22 21 23 23 24 22 22 23 25 24 22
8 9 9 8 8 8 8 8 8 8 7 7 7 8 8 8 8 9 9 14 13 11 15 16 16 17 17 17 18 21 20 21 21 22 22 21 21 24 23 22 21 21 22 23 24 24 22
8 8 8 8 8 8 8 8 8 8 7 7 7 7 8 8 8 8 10 11 9 10 14 16 16 17 18 17 18 20 21 21 21 22 21 22 23 21 22 21 20 21 20 20 21 22 22
8 8 8 8 8 8 8 8 8 8 7 7 7 8 8 8 8 8 10 8 9 9 14 17 16 16 16 17 17 19 21 21 21 21 22 22 23 21 20 21 21 21 22 21 20 20 22
7 8 8 8 8 8 8 8 8 7 7 7 7 7 8 7 8 10 9 9 9 10 14 17 16 16 17 17 18 18 19 20 19 20 20 20 20 20 20 21 22 21 21 21 21 21 21
7 7 7 7 7 7 8 8 8 8 8 7 7 7 7 7 7 8 8 9 10 12 13 17 17 16 16 16 17 18 18 19 19 19 20 19 21 20 21 20 20 20 20 20 20 21 20
7 7 7 7 7 7 7 7 7 7 7 7 7 7 7 7 9 7 8 10 11 12 17 16 17 17 17 17 17 17 17 17 17 16 17 19 19 20 20 19 19 19 20 20 20 20 21
6 6 6 7 7 7 7 7 7 7 7 7 7 7 6 7 7 7 8 10 10 15 16 17 16 17 17 17 18 18 18 17 17 17 17 18 19 20 20 19 19 19 20 19 18 21 22
6 6 6 6 6 7 7 7 7 7 7 7 6 6 6 6 6 7 8 10 12 15 17 15 16 15 17 17 17 18 18 18 18 18 17 17 18 19 19 20 20 19 18 20 18 19 18
4 5 5 6 6 7 6 6 6 7 7 6 6 5 7 6 7 7 7 10 13 15 15 15 14 16 16 17 17 17 18 17 17 16 17 17 16 19 20 19 19 19 19 17 15 14 15
4 4 4 4 5 6 6 6 6 6 6 6 6 6 7 6 7 7 7 11 13 15 13 14 15 15 15 15 15 17 17 17 16 16 17 16 16 18 18 18 19 17 17 17 16 16 17
3 4 4 4 4 4 6 5 6 6 5 5 4 5 5 6 6 7 8 11 12 12 13 12 13 14 15 15 14 15 15 16 15 15 14 15 15 15 17 19 18 18 18 19 16 16 18
3 3 3 3 4 4 4 5 4 5 5 3 3 4 4 5 6 7 9 10 11 10 11 12 12 13 14 13 12 14 14 14 14 14 13 13 14 14 15 17 17 16 17 17 17 14 15
3 3 3 3 3 3 4 4 3 4 4 4 3 5 4 4 9 9 9 9 9 10 11 11 11 12 12 12 13 12 13 13 13 13 12 12 13 13 14 16 15 14 14 15 14 12 15
3 3 3 3 3 3 4 4 3 3 4 3 2 5 7 5 5 8 10 9 9 8 9 10 10 10 11 11 11 11 12 12 13 13 12 13 12 13 14 15 15 14 15 15 13 15 13
3 3 3 2 3 3 3 3 2 2 3 3 3 4 5 9 8 7 7 8 9 10 10 8 9 11 10 10 11 11 11 11 11 12 12 11 11 12 12 14 14 14 15 15 15 15 16
2 3 2 2 2 3 3 3 2 2 3 0 0 4 7 7 7 7 7 7 8 9 9 9 9 9 9 10 10 11 12 12 11 11 11 11 11 11 11 14 13 11 13 14 13 15 16
2 2 2 3 3 2 3 3 2 3 3 1 1 4 5 5 7 7 8 8 8 8 7 6 7 8 8 8 9 9 10 10 11 11 11 10 10 11 11 12 9 14 17 16 16 16 16
2 2 2 3 3 3 2 2 2 2 2 1 1 3 4 4 7 8 7 7 7 8 7 6 7 8 8 6 6 6 8 9 10 11 12 12 11 10 9 11 13 15 16 15 15 15 18
2 2 3 3 3 2 2 2 2 1 2 2 1 1 2 4 4 7 7 8 7 7 7 7 8 8 7 6 5 5 7 9 11 11 13 13 12 11 10 10 10 14 16 16 16 14 18
2 2 2 2 3 3 2 2 2 2 2 1 1 1 1 3 6 7 7 8 8 8 8 8 7 6 7 6 6 7 7 9 8 11 10 10 10 9 10 10 12 15 16 16 12 15 14
2 2 2 2 2 2 2 2 2 2 2 2 3 1 3 3 6 6 7 7 7 8 7 8 7 7 6 5 6 7 8 10 10 11 12 11 10 10 10 10 10 16 15 13 14 12 12
2 2 2 2 2 2 2 2 2 2 2 2 2 2 2 3 3 3 5 6 7 8 8 8 7 8 8 7 8 9 8 8 9 9 13 10 12 11 11 10 13 12 13 12 11 11 10

GFSGBSN_925_temp_165.txt.gz
Temp
11 11 11 12 12 12 12 12 12 12 13 13 13 13 13 13 13 13 13 13 13 14 14 14 14 14 16 23 25 23 22 22 23 24 26 27 27 28 28 30 29 28 29 30 30 29 29
11 11 11 11 11 11 11 11 11 12 11 12 12 12 12 12 12 12 13 13 13 13 13 14 14 14 18 20 24 23 22 22 24 25 26 27 27 27 27 27 28 29 28 29 29 29 29
10 10 10 10 9 9 9 10 10 10 10 11 11 11 11 12 12 12 12 12 12 13 13 13 13 13 18 21 23 24 23 23 23 24 26 26 26 26 27 27 28 27 26 28 29 29 29
9 9 9 9 8 8 8 8 9 9 9 10 10 10 11 11 11 12 12 12 12 12 12 13 13 14 19 22 22 22 22 23 23 23 24 25 24 25 25 27 26 26 27 27 29 30 29
9 9 9 9 8 8 8 8 8 8 8 8 9 9 9 10 11 11 11 12 12 12 13 13 13 17 20 22 22 23 23 24 24 24 24 23 24 25 26 24 26 27 26 28 29 29 28
9 9 9 9 8 8 8 8 8 8 8 8 8 8 9 9 10 10 11 12 13 12 13 14 16 18 20 23 24 23 23 23 24 24 24 23 24 24 25 25 25 27 28 27 27 28 27
9 9 9 9 9 9 8 8 8 8 8 8 8 8 8 9 9 10 11 15 16 17 16 20 22 21 23 22 21 23 24 23 24 24 23 24 24 24 26 27 27 26 25 26 27 28 25
9 9 9 9 9 8 8 8 8 8 8 7 8 8 8 8 9 10 11 17 16 14 17 20 21 21 21 22 20 24 23 23 24 24 25 25 23 26 27 26 25 25 25 25 26 28 26
8 9 8 8 8 8 8 8 8 8 8 7 7 7 8 8 9 10 14 15 12 13 16 20 21 21 21 21 21 22 24 23 24 23 25 24 25 26 25 25 24 24 24 25 25 26 26
8 8 8 8 8 8 8 8 8 8 8 8 7 8 8 8 9 12 14 12 12 12 16 20 19 19 19 20 19 22 22 24 23 22 24 25 25 25 24 24 25 23 26 25 24 24 24
8 8 8 8 8 8 8 8 8 8 8 8 7 7 8 8 10 13 11 10 11 13 14 20 19 19 20 19 20 21 21 22 21 22 22 23 24 23 23 24 24 24 25 24 24 24 24
7 7 7 7 7 7 8 8 8 8 8 8 7 7 8 9 9 11 10 10 11 13 14 19 19 19 18 18 19 20 19 20 21 20 21 22 24 22 23 24 24 24 22 23 23 23 22
7 7 7 7 7 7 7 7 7 8 8 8 7 7 7 9 12 10 10 12 13 13 19 19 19 20 20 20 20 19 19 17 18 17 18 20 21 23 22 21 22 22 21 20 21 21 22
7 7 7 7 7 7 7 7 7 7 7 7 7 7 7 9 10 9 10 11 11 17 18 20 19 19 19 20 21 21 20 20 20 19 18 20 20 22 23 21 21 21 21 19 19 21 23
6 6 6 6 7 7 7 7 7 7 7 7 7 7 7 8 9 9 9 9 13 16 18 19 19 18 18 19 19 19 20 20 21 18 18 19 20 22 21 23 21 20 20 22 19 20 19
5 5 5 5 6 7 7 7 7 7 7 7 8 8 9 8 8 9 8 11 15 18 19 18 17 18 17 19 19 19 19 20 17 18 19 19 18 19 20 21 21 20 21 17 16 16 17
4 4 4 5 5 5 6 6 7 7 6 6 7 7 10 8 8 9 8 11 14 17 17 16 16 17 17 17 18 18 19 19 17 14 19 18 17 19 20 19 20 19 18 19 19 16 18
4 4 4 4 4 5 5 5 6 6 6 6 6 6 9 7 7 7 8 11 14 16 16 15 15 15 16 17 17 17 17 17 15 17 17 18 16 17 19 20 21 20 17 18 16 16 17
4 4 4 4 4 4 4 5 5 5 6 5 4 5 6 7 7 7 11 12 13 14 15 15 14 15 16 16 15 16 16 15 15 15 15 16 16 15 17 19 20 19 17 19 19 18 15
3 3 3 3 3 3 4 4 5 5 5 4 3 5 4 4 8 10 11 11 12 14 14 14 14 15 14 15 16 15 15 16 15 15 12 13 15 14 14 16 17 12 12 14 13 13 16
3 3 3 3 3 3 3 3 4 4 5 4 3 5 8 6 6 9 11 11 11 11 12 13 12 12 13 13 14 14 15 15 15 15 14 15 13 14 15 17 17 17 17 16 14 14 13
3 3 3 3 3 3 3 3 3 4 4 2 3 5 7 9 10 8 9 10 12 12 12 10 10 12 13 12 13 13 14 14 14 15 14 15 12 14 14 15 16 15 17 17 17 17 18
3 3 3 3 3 3 3 3 3 3 3 -0 0 6 9 9 9 9 9 10 11 12 13 10 8 8 10 11 12 12 12 13 12 13 13 13 12 12 12 15 15 12 15 16 15 17 16
2 2 3 3 3 3 3 3 3 3 2 0 2 7 6 7 9 9 10 10 11 11 11 10 10 10 10 10 11 11 11 12 13 13 14 12 12 13 12 13 10 15 18 18 17 18 18
2 2 2 2 3 3 3 3 3 3 3 1 1 3 5 7 10 11 11 10 11 11 10 8 9 10 7 8 8 8 9 9 11 12 13 13 13 11 11 12 14 15 17 17 16 17 18
2 2 2 2 3 3 3 3 2 2 2 1 1 2 3 5 7 8 7 10 9 9 8 9 9 9 8 7 6 6 9 11 10 12 13 13 13 12 11 10 11 15 17 19 18 15 19
2 2 2 2 3 3 3 2 2 2 2 1 1 2 3 5 8 9 8 7 10 10 9 9 9 8 8 7 6 7 8 11 10 10 11 12 12 11 11 11 13 16 17 17 13 15 15
2 2 2 2 3 3 2 2 2 2 1 1 1 2 5 5 7 7 9 7 7 6 9 10 9 9 7 6 7 8 8 10 11 12 11 9 8 9 10 10 10 16 16 15 16 17 15
2 2 2 2 2 2 3 3 2 2 2 2 4 3 3 4 6 5 7 8 8 9 9 10 7 10 9 8 9 10 9 10 10 10 13 11 13 12 11 11 15 15 14 15 14 14 13

GFSGBSN_925_temp_171.txt.gz
Temp
13 13 13 13 13 13 13 13 13 13 13 13 13 13 13 13 13 13 13 13 13 13 14 13 13 14 15 17 19 24 23 24 24 24 24 24 24 24 23 23 23 24 25 26 26 26 26
11 11 12 12 12 12 12 12 12 12 12 13 13 12 12 12 12 12 12 12 13 14 14 14 13 13 14 15 22 23 24 24 24 24 24 24 24 24 24 24 22 24 24 24 25 24 25
11 11 11 11 11 11 11 11 11 11 11 11 11 11 11 12 12 13 13 13 13 13 14 14 13 12 13 15 22 23 23 23 24 24 23 24 25 23 23 22 24 24 22 23 24 24 25
11 10 11 11 11 10 10 10 10 10 9 10 10 10 10 10 10 11 12 13 14 14 13 13 12 11 12 20 22 21 23 23 24 24 24 24 25 23 23 23 23 22 22 21 24 25 26
10 10 10 10 10 9 9 9 9 9 9 9 9 9 9 9 10 10 12 13 14 14 13 13 12 12 14 20 20 23 22 23 24 24 24 24 24 22 21 20 19 20 19 21 23 26 25
9 9 9 9 9 9 9 9 9 9 8 8 8 8 8 9 9 10 11 14 16 13 13 12 13 14 16 20 23 24 24 24 24 23 23 23 21 19 18 17 17 20 20 23 23 25 27
9 9 9 9 9 9 9 9 8 8 8 8 8 8 8 8 9 9 11 14 13 12 13 15 16 16 20 22 22 24 24 24 23 22 19 21 18 18 18 20 21 22 22 22 23 24 24
9 9 9 9 9 9 9 9 8 8 8 8 8 8 8 8 9 10 10 10 14 14 12 16 17 18 19 19 19 21 22 21 21 20 20 20 19 21 22 22 22 23 22 22 23 24 24
9 9 9 9 9 8 9 8 8 8 8 8 8 8 8 8 9 11 11 13 14 13 11 15 17 18 19 20 19 20 21 20 20 19 20 19 21 23 23 22 22 23 22 22 22 23 22
8 8 8 8 8 8 8 8 8 8 8 8 8 8 8 8 9 10 12 12 13 13 9 15 17 19 19 20 19 22 22 20 20 19 20 20 21 22 22 22 23 22 23 23 23 22 20
8 8 8 8 8 8 8 8 8 8 8 8 8 8 8 8 8 9 11 11 12 12 8 18 19 20 21 19 20 20 22 20 18 19 19 19 20 20 20 21 22 22 23 23 22 20 20
8 8 8 8 8 8 8 8 8 8 8 8 8 8 8 9 9 10 10 11 11 9 9 17 19 18 18 18 19 20 19 20 20 18 19 19 20 20 20 21 21 21 21 21 21 19 17
7 7 7 8 8 8 8 8 8 8 8 8 8 8 7 8 9 10 10 10 9 9 16 18 18 19 18 18 18 18 18 17 16 16 15 18 19 20 20 19 20 21 19 16 16 16 17
7 7 7 7 7 8 8 7 7 7 8 8 7 7 7 8 9 9 10 8 9 12 14 18 17 17 17 20 19 19 18 17 17 16 16 16 16 18 20 20 19 19 18 14 16 16 17
7 7 7 7 7 7 7 7 7 7 7 7 7 7 7 8 8 8 7 7 7 13 15 15 16 16 17 18 19 18 18 17 17 15 13 13 16 16 19 20 20 19 18 19 17 18 15
6 6 7 7 7 7 7 6 7 7 7 7 6 6 6 8 8 8 5 8 10 13 15 15 14 15 14 15 15 16 17 18 18 17 15 14 12 16 18 18 20 19 19 17 13 13 14
6 6 5 6 6 6 6 6 6 6 6 6 6 5 7 8 8 7 7 6 10 12 13 13 13 12 13 13 13 14 16 16 16 16 16 16 14 15 16 14 16 16 16 15 14 13 14
5 5 5 5 5 5 5 5 5 6 6 5 6 5 6 8 6 6 7 8 11 12 13 13 13 13 13 14 13 13 14 15 14 15 14 14 13 12 14 15 17 15 14 12 12 13 12
5 5 5 5 5 5 5 5 5 5 5 6 5 4 7 7 6 7 7 9 10 11 11 12 12 13 13 13 11 13 13 14 14 14 13 13 11 10 13 14 15 14 10 11 11 11 12
4 4 4 4 4 4 4 4 4 4 4 4 3 4 3 4 6 5 7 8 9 11 11 12 12 12 12 12 13 10 13 13 12 13 13 13 11 10 9 12 14 13 14 14 12 10 12
3 3 4 4 4 4 3 3 3 4 4 4 2 4 5 4 5 6 5 9 9 9 11 12 11 12 12 11 11 11 12 11 11 13 12 12 9 11 12 13 14 14 14 15 13 13 11
3 3 3 4 4 3 3 3 3 3 4 3 0 3 4 4 6 6 6 6 8 9 10 11 10 11 10 9 11 9 8 10 11 9 8 10 9 11 11 13 13 13 14 14 14 14 15
3 3 3 3 3 3 3 3 3 3 3 3 2 1 3 3 4 5 6 7 8 9 10 11 10 9 9 9 8 9 9 9 10 9 9 8 9 9 9 12 11 8 11 12 10 13 14
3 3 3 3 3 3 3 3 3 3 3 3 3 3 1 2 4 5 7 7 8 8 9 10 8 8 8 8 9 8 9 9 10 9 9 9 10 9 8 9 8 10 13 14 13 14 14
3 3 3 3 3 3 3 3 3 3 3 2 3 3 3 2 4 5 6 6 6 8 9 7 6 9 8 8 5 7 6 8 8 9 9 10 9 7 7 8 10 11 12 13 12 12 14
2 2 2 2 3 3 3 3 3 3 3 2 2 2 1 2 3 6 5 6 6 5 6 7 7 7 8 4 3 5 5 8 8 10 11 11 10 8 7 7 7 11 13 14 12 9 13
2 2 2 2 2 2 3 3 3 3 3 2 2 1 1 2 4 3 4 4 4 5 5 5 5 6 8 2 3 4 5 9 7 8 9 7 7 7 8 7 9 12 13 13 10 9 12
2 2 2 2 2 3 3 3 3 2 2 2 1 1 1 2 3 6 4 3 5 5 5 6 5 5 3 2 4 3 5 6 7 8 8 7 6 6 6 7 7 11 10 10 9 8 8
2 2 2 2 2 3 3 3 2 2 2 1 1 1 0 0 3 6 6 7 7 8 5 3 4 6 6 3 4 5 4 3 6 5 9 5 8 7 8 7 9 10 9 10 10 9 7